Temp
12 12 12 12 12 13 13 14 15 15 15 15 15 15 15 15 15 15 14 13 13 12 12 11 11 11 10 9 9 9 7 7 8 6 6 6 6 6 5 6 5 5 5
12 12 12 12 13 13 14 15 14 14 14 14 14 14 14 14 14 14 13 11 12 11 11 12 12 10 8 8 9 7 6 6 6 5 5 5 5 5 5 5 4 4 3
12 12 12 13 12 13 15 13 13 13 13 13 14 13 13 13 14 14 13 12 12 12 11 11 10 9 8 7 6 5 5 5 5 4 3 4 4 4 3 3 3 2 2
13 13 13 13 13 15 14 13 13 13 13 13 14 14 13 13 13 12 12 11 12 11 10 9 8 8 7 6 5 5 4 4 3 3 2 2 2 2 1 2 2 1 0
13 13 14 14 14 15 14 13 13 14 14 14 13 13 12 12 12 12 12 11 10 9 8 7 7 6 6 6 5 4 4 3 2 1 1 1 1 2 2 1 -1 -1 -1
13 13 14 14 14 14 13 12 12 13 13 13 12 12 12 12 12 12 11 10 9 7 6 5 4 4 4 4 3 3 3 2 1 1 1 1 1 -0 -1 -1 -2 -1 0
13 13 13 13 13 13 12 11 11 12 12 12 12 12 11 11 10 9 9 8 6 5 4 3 2 2 2 2 2 1 1 0 -0 0 -1 -1 -1 -2 -3 -3 -2 -2 -2
14 14 13 12 11 11 11 11 12 12 11 10 9 9 8 7 6 6 6 5 4 3 2 2 2 0 0 0 0 0 -1 -1 -1 -2 -3 -3 -4 -4 -4 -4 -3 -3 -3
12 11 11 10 11 11 10 10 9 8 7 7 6 6 6 4 4 4 5 3 2 0 -0 -0 -0 -1 -1 -1 -0 -1 -3 -4 -4 -4 -4 -4 -5 -5 -5 -5 -4 -3 -3
10 10 11 11 10 9 9 7 6 6 5 4 4 3 3 3 3 3 4 2 0 -1 -2 -2 -2 -1 -1 -1 -2 -3 -4 -4 -5 -6 -6 -6 -6 -6 -6 -6 -6 -5 -4
9 9 9 9 8 7 6 5 5 4 3 2 2 1 1 1 1 2 2 2 1 -1 -2 -3 -3 -3 -4 -4 -4 -5 -5 -6 -7 -7 -7 -7 -7 -7 -7 -8 -8 -7 -6
7 7 6 6 5 5 5 4 3 3 1 -1 -1 -2 -2 -1 -1 -1 -0 -0 -1 -1 -3 -4 -5 -5 -6 -6 -6 -6 -6 -7 -8 -8 -8 -8 -8 -8 -8 -9 -9 -9 -8
6 5 5 5 4 4 4 2 1 0 -1 -2 -3 -4 -5 -5 -4 -3 -3 -2 -3 -4 -4 -4 -5 -6 -7 -7 -7 -7 -8 -9 -9 -9 -8 -8 -9 -9 -10 -10 -10 -10 -10
4 3 3 3 2 2 2 1 0 -0 -1 -2 -4 -5 -6 -6 -5 -4 -4 -4 -5 -5 -5 -6 -7 -7 -7 -8 -8 -8 -9 -9 -10 -10 -10 -10 -10 -10 -10 -10 -11 -11 -10
2 1 -0 -1 -1 -1 -2 -1 -1 -1 -0 -2 -4 -5 -5 -5 -6 -5 -5 -6 -6 -6 -7 -7 -7 -7 -8 -8 -8 -9 -10 -10 -10 -10 -11 -11 -11 -11 -11 -12 -12 -11 -11
-1 -1 -2 -3 -3 -3 -4 -4 -3 -2 -2 -2 -3 -3 -5 -6 -7 -7 -7 -7 -7 -7 -7 -7 -8 -9 -9 -9 -9 -9 -10 -11 -11 -12 -12 -12 -12 -13 -12 -12 -13 -12 -12
-3 -4 -4 -4 -4 -4 -4 -4 -5 -6 -5 -5 -5 -6 -6 -7 -7 -7 -8 -8 -8 -8 -8 -8 -9 -10 -10 -10 -10 -10 -11 -12 -13 -13 -13 -13 -14 -14 -14 -13 -13 -13 -13
-4 -4 -4 -4 -4 -4 -4 -4 -4 -4 -5 -6 -7 -7 -7 -8 -8 -9 -9 -8 -8 -9 -9 -9 -10 -10 -11 -11 -11 -12 -13 -13 -14 -14 -14 -14 -15 -15 -14 -14 -14 -14 -13
-5 -5 -5 -5 -5 -5 -5 -5 -5 -5 -6 -7 -8 -9 -9 -10 -10 -10 -10 -10 -10 -10 -11 -11 -11 -11 -12 -12 -13 -14 -14 -15 -15 -16 -16 -16 -16 -16 -15 -15 -15 -15 -15
-6 -6 -6 -7 -7 -7 -7 -7 -7 -7 -8 -9 -9 -10 -10 -10 -11 -12 -12 -12 -12 -13 -13 -13 -13 -14 -15 -15 -15 -15 -15 -15 -16 -16 -16 -16 -16 -16 -16 -16 -16 -15 -15
-8 -8 -8 -8 -8 -8 -8 -9 -9 -9 -10 -11 -12 -13 -12 -12 -12 -13 -14 -14 -15 -15 -16 -16 -16 -16 -17 -17 -17 -17 -17 -18 -18 -18 -18 -17 -17 -17 -17 -17 -16 -16 -15
-9 -9 -9 -10 -10 -10 -11 -11 -11 -11 -11 -12 -13 -14 -14 -14 -15 -15 -16 -17 -17 -18 -18 -18 -18 -18 -19 -19 -19 -19 -19 -19 -19 -19 -19 -19 -18 -18 -17 -17 -17 -16 -16
-11 -11 -11 -12 -12 -13 -13 -13 -13 -14 -14 -15 -15 -15 -16 -17 -17 -18 -18 -19 -19 -19 -20 -20 -20 -20 -20 -21 -21 -21 -21 -20 -20 -20 -20 -19 -19 -18 -18 -17 -17 -17 -16
-13 -13 -13 -14 -14 -15 -15 -16 -16 -16 -16 -17 -17 -18 -18 -19 -19 -20 -20 -20 -20 -21 -21 -21 -22 -22 -22 -22 -22 -21 -21 -21 -21 -21 -21 -20 -20 -19 -18 -18 -17 -17 -17
-15 -15 -16 -16 -16 -17 -17 -18 -18 -18 -19 -19 -19 -19 -19 -20 -20 -21 -21 -21 -21 -22 -22 -22 -22 -22 -22 -21 -21 -21 -21 -21 -21 -22 -22 -21 -21 -20 -20 -19 -19 -18 -17
-16 -17 -17 -18 -18 -18 -18 -19 -19 -20 -20 -20 -21 -21 -21 -22 -22 -22 -23 -23 -23 -23 -23 -23 -23 -22 -21 -21 -21 -20 -20 -20 -20 -20 -21 -22 -21 -20 -20 -19 -18 -18 -17
Height
743 749 755 761 767 772 774 777 779 783 787 790 794 797 800 802 804 805 807 808 806 809 808 808 807 811 813 814 813 815 821 823 826 831 832 834 835 837 838 838 838 839 838
734 741 746 752 757 761 764 764 771 775 780 783 787 790 793 794 795 798 798 801 800 800 801 798 800 802 806 807 806 811 816 817 819 822 827 829 830 832 833 833 832 832 832
728 735 740 743 746 749 749 756 764 768 772 776 780 782 785 786 787 788 789 790 791 792 793 794 794 796 798 800 802 809 810 812 814 816 820 823 825 826 828 826 826 825 824
724 729 732 736 739 743 746 753 758 763 767 769 771 772 774 777 778 779 782 783 783 785 785 787 788 790 790 795 801 802 808 808 810 813 816 819 822 822 821 821 820 820 819
717 722 723 728 733 738 743 747 751 755 759 762 764 766 767 768 769 772 774 775 777 778 780 782 782 784 786 791 796 800 802 806 808 811 815 816 818 818 818 818 816 814 812
710 712 719 724 728 732 738 742 745 750 753 756 757 758 760 761 762 765 767 769 771 773 776 778 781 784 788 792 796 800 801 806 810 811 813 815 814 815 814 814 812 811 807
702 708 714 720 724 729 734 737 740 743 747 748 750 752 753 755 757 761 763 765 767 770 774 777 781 784 788 793 796 799 802 804 806 809 809 810 810 811 811 810 809 807 803
698 703 709 714 720 724 729 733 737 739 742 744 747 749 751 753 756 758 761 763 766 771 775 778 780 787 790 792 796 799 800 803 803 805 806 807 808 808 808 807 803 801 797
694 699 703 710 716 722 726 729 733 736 739 742 745 748 749 753 757 759 761 763 768 774 779 782 786 789 794 794 798 799 801 802 803 803 803 804 804 803 802 801 798 795 791
691 698 703 708 713 718 723 726 731 735 738 742 746 749 751 755 760 762 764 767 771 777 782 785 790 792 794 794 797 799 802 803 803 804 804 802 801 799 798 797 794 792 789
692 697 702 708 711 716 721 727 730 735 739 743 746 752 754 759 762 765 767 770 773 778 783 787 790 791 792 793 795 796 796 797 797 798 798 797 796 796 794 790 789 788 785
691 697 704 708 713 718 722 728 733 736 740 746 750 756 760 763 765 768 771 774 778 781 784 787 789 791 792 794 795 794 794 794 795 795 795 793 792 790 787 785 783 781 780
693 698 704 710 717 721 725 730 735 740 744 749 754 759 765 768 770 773 775 776 779 782 785 787 788 791 792 792 793 794 793 793 793 793 792 789 788 786 783 780 778 775 772
694 702 708 712 720 726 730 734 738 743 747 752 757 762 766 770 773 776 777 779 781 783 785 787 788 790 791 792 792 793 793 792 792 790 788 785 784 782 778 776 774 771 767
699 709 714 720 725 731 735 740 742 747 749 753 759 763 768 772 774 777 779 780 782 783 785 786 788 789 791 791 791 791 791 790 789 787 785 783 780 778 774 772 771 768 764
705 713 723 726 732 737 741 746 751 754 757 759 763 766 770 774 777 779 781 783 783 785 786 787 788 789 790 790 789 789 788 787 786 785 783 780 777 774 771 769 768 766 762
711 718 725 734 738 741 747 751 756 763 764 767 770 772 775 778 781 782 783 784 785 785 786 787 788 789 789 788 788 788 786 785 784 782 780 777 774 772 770 767 765 762 758
719 725 730 739 744 748 751 755 760 765 770 775 778 779 780 781 783 784 784 785 786 786 787 789 790 790 789 788 787 786 785 783 781 780 777 774 772 769 766 763 761 758 754
729 731 738 747 750 752 755 760 766 770 774 777 781 782 784 784 784 785 786 787 789 789 790 790 790 790 789 788 786 785 783 781 779 777 774 771 769 767 763 761 758 755 752
738 742 746 752 755 758 762 766 770 774 778 780 783 787 787 787 787 788 789 790 791 791 791 791 791 790 789 787 785 783 780 778 775 773 770 768 765 763 760 757 754 751 747
750 754 756 759 762 765 769 771 775 779 782 785 787 789 789 789 790 791 792 792 792 792 792 791 790 789 787 785 782 780 777 774 772 769 766 763 761 759 757 753 750 747 744
757 761 765 767 769 771 774 777 781 784 786 787 790 791 790 791 792 793 793 793 793 792 791 789 788 786 784 781 779 776 773 770 768 765 762 760 757 755 752 749 746 743 739
765 768 771 774 776 778 781 783 785 787 789 790 792 792 792 793 793 794 794 792 791 790 788 786 784 781 779 776 773 770 767 765 764 761 758 756 753 751 748 745 742 738 735
772 776 779 781 783 784 786 787 788 789 791 792 793 794 794 795 794 794 792 790 788 787 784 782 780 777 774 770 768 765 763 761 759 757 754 751 748 746 743 740 737 734 731
780 783 785 786 787 789 789 790 791 793 794 795 796 796 795 794 794 792 790 788 786 784 781 778 774 771 768 765 762 759 757 755 753 750 747 745 742 740 737 735 732 729 726
787 788 790 791 792 792 793 794 795 796 797 797 797 796 794 793 792 790 788 786 784 780 776 773 769 766 762 759 756 754 751 749 746 743 740 737 735 732 731 728 726 723 720
Wind_Speed
31 30 29 29 30 32 34 38 41 39 38 38 37 35 34 34 32 31 29 30 29 33 29 24 23 30 29 29 26 27 25 20 11 6 11 11 11 13 10 11 11 14 16
31 31 32 34 37 40 44 49 41 34 33 37 34 36 34 36 34 31 32 31 33 32 32 28 28 30 26 23 23 29 28 18 13 12 13 12 11 12 12 13 13 13 11
31 32 34 37 35 38 48 37 31 31 31 32 35 34 35 32 35 37 36 35 31 32 30 31 31 29 25 24 27 26 21 18 16 12 11 11 11 13 9 11 12 13 15
29 32 33 35 38 43 38 23 25 25 27 29 36 38 36 32 35 35 31 30 29 30 27 27 27 24 23 23 24 21 18 16 13 12 9 10 10 8 9 10 12 11 15
31 32 37 36 37 38 29 27 26 28 29 30 31 32 32 33 35 33 32 30 28 23 20 19 18 19 18 19 20 18 16 15 13 11 7 6 8 8 9 7 11 13 16
31 34 32 33 32 32 27 23 24 27 27 27 29 31 33 34 33 32 29 25 21 19 19 17 16 16 15 14 13 13 12 10 7 5 4 7 7 9 8 9 11 12 7
31 29 28 28 28 27 23 22 23 25 26 28 29 31 30 30 25 22 20 18 19 20 21 22 19 16 15 13 11 9 6 5 6 9 6 6 6 7 8 11 12 12 14
25 24 23 23 23 25 24 23 24 22 20 19 17 15 14 10 11 15 18 20 20 21 21 18 17 15 12 10 7 6 4 3 3 4 4 4 7 9 11 13 15 16 17
20 21 24 24 23 21 22 20 17 15 13 11 10 11 13 16 18 18 18 22 24 21 17 15 13 12 8 5 5 4 3 2 2 3 5 8 10 11 11 10 12 13 14
21 22 21 22 23 21 17 15 13 14 16 17 17 16 20 21 14 16 19 23 23 21 16 13 9 5 3 3 3 3 4 2 1 4 5 6 7 7 8 7 8 13 14
21 21 20 19 18 17 17 17 19 20 23 24 25 24 23 20 18 15 15 18 19 18 14 11 8 6 5 5 5 4 4 2 2 4 5 6 5 7 7 7 9 11 14
26 24 21 19 20 20 20 20 20 24 27 27 29 25 22 21 19 17 16 16 14 14 11 8 7 7 8 5 4 2 1 1 3 4 5 5 7 8 9 11 13 14 16
29 27 25 22 19 18 20 21 22 22 24 21 21 21 21 20 20 17 16 15 13 11 8 6 6 8 7 4 2 2 2 2 3 5 7 7 8 11 13 13 14 16 19
29 27 26 27 23 20 19 18 20 20 20 19 18 18 18 16 15 13 11 10 10 7 6 5 5 5 3 2 1 3 3 3 5 7 8 10 10 12 12 13 16 18 21
28 25 25 26 27 26 23 19 19 14 18 20 18 18 16 13 10 10 8 7 6 5 6 5 3 1 1 2 3 4 5 6 8 9 11 13 14 13 14 13 15 17 19
26 22 20 24 24 25 28 33 28 24 22 21 19 17 17 17 14 13 12 10 9 6 4 3 2 1 3 5 7 8 8 9 10 12 14 15 15 15 16 15 16 16 19
27 25 25 23 22 23 21 22 25 27 26 23 20 19 18 17 14 11 10 9 5 6 6 4 4 4 5 7 8 10 11 12 13 14 15 15 16 17 17 17 17 17 19
32 30 27 24 23 23 21 19 16 15 16 18 17 18 17 15 13 11 8 7 7 7 6 5 5 6 8 9 10 11 13 14 15 16 16 17 17 17 17 17 18 18 19
30 31 31 27 26 25 21 19 17 16 15 15 14 14 13 12 11 11 10 9 7 6 6 6 8 9 9 11 13 14 15 16 17 18 18 18 17 17 18 18 19 19 20
33 32 30 25 22 20 18 17 16 16 15 14 12 9 7 7 10 10 10 8 7 7 8 8 9 10 12 14 15 16 17 17 18 19 19 19 18 17 18 19 19 19 19
28 27 25 21 20 18 17 17 16 14 14 13 13 12 10 9 8 8 8 9 8 8 8 10 11 12 14 15 17 18 19 20 19 19 19 18 17 18 18 18 18 19 20
25 22 20 20 19 19 18 16 15 14 13 12 10 10 11 10 8 8 7 7 8 8 8 10 12 14 15 16 17 18 19 19 19 18 17 17 17 17 17 18 18 18 19
22 21 20 19 18 18 17 15 15 14 12 11 9 9 9 9 8 7 8 9 9 11 13 15 15 16 15 14 15 16 17 18 17 17 18 18 18 18 18 19 19 20 20
20 19 18 17 16 16 15 15 14 13 11 10 9 8 7 7 7 8 11 13 15 15 16 15 15 16 17 18 16 15 16 15 15 17 17 19 21 20 19 20 20 21 21
19 18 17 16 15 14 14 13 12 11 10 9 7 6 7 8 8 10 12 14 14 14 15 17 16 17 18 20 20 18 17 17 18 18 18 19 21 21 21 20 21 20 19
18 17 16 15 14 13 12 11 10 8 7 6 6 7 8 9 9 11 11 11 13 16 16 16 18 20 20 18 16 17 18 19 20 21 20 19 19 19 19 19 19 19 19
Wind_Direction
196 197 199 202 208 214 222 228 232 236 238 240 244 247 251 253 254 254 251 257 258 260 252 252 260 263 256 250 236 229 218 204 200 178 197 217 233 252 249 254 263 270 271
190 191 196 202 209 215 222 228 230 234 238 242 242 248 249 253 255 248 259 258 258 249 255 251 259 251 245 243 230 219 208 200 190 186 210 228 235 250 253 275 279 273 271
193 193 200 208 209 214 222 224 227 231 234 241 242 242 248 250 254 256 257 259 259 253 260 258 250 240 233 220 212 207 201 198 205 191 197 214 238 254 260 273 271 277 279
195 198 205 210 215 227 232 231 226 232 237 239 249 255 253 250 250 254 255 248 253 251 254 250 238 236 221 207 206 198 201 195 190 193 197 219 237 238 264 278 281 282 289
197 200 210 214 219 228 231 234 238 243 247 250 253 252 248 248 252 253 242 243 239 237 236 229 226 221 209 201 198 196 189 193 188 189 195 212 232 254 266 274 282 290 291
202 208 210 215 219 225 230 235 237 246 249 248 245 247 251 250 249 241 240 233 226 215 197 191 179 170 169 170 177 185 184 184 198 206 224 244 254 266 270 280 284 291 297
202 206 209 213 218 222 226 230 238 248 252 250 247 241 238 238 235 231 231 216 198 189 175 159 145 146 154 157 159 159 174 197 222 234 237 252 266 263 280 282 279 279 278
199 201 200 201 203 211 218 226 230 227 229 225 225 227 223 217 193 188 193 176 163 159 157 153 148 145 144 141 146 159 164 209 233 247 249 263 270 281 277 279 284 288 290
178 178 184 188 195 199 197 197 200 197 194 191 187 182 163 147 161 171 166 146 137 131 130 128 129 132 139 146 176 168 174 182 216 238 257 267 272 275 274 281 280 293 296
159 171 181 186 186 184 186 179 167 166 151 147 136 138 137 134 151 154 146 138 129 124 120 120 128 126 140 151 157 156 152 164 319 315 305 301 296 291 279 274 292 287 298
160 160 161 164 163 164 153 153 150 142 135 126 123 123 125 128 129 134 136 135 134 131 128 127 122 124 127 133 135 133 154 182 287 294 290 292 290 276 287 298 289 282 283
136 132 131 132 135 140 143 139 141 140 130 123 121 112 110 111 115 117 120 121 125 126 118 115 115 130 143 141 112 151 208 273 291 294 282 281 290 298 303 299 295 287 276
123 118 119 121 123 129 133 134 131 135 125 117 111 106 102 109 106 112 111 110 101 99 109 122 125 134 144 128 169 249 299 307 300 294 296 299 303 302 303 303 302 298 293
116 115 119 118 118 119 121 128 131 132 125 121 118 117 118 115 114 112 106 96 88 91 91 104 134 150 177 195 241 315 323 314 307 306 305 308 306 308 306 307 307 307 302
103 105 103 104 107 105 99 104 114 125 146 140 134 131 124 115 111 113 100 87 90 101 109 112 114 117 284 293 289 304 309 315 318 316 311 308 305 308 308 308 306 304 299
104 98 98 100 97 95 93 84 82 92 98 102 112 116 108 110 102 96 94 92 89 83 66 56 29 339 309 308 304 305 310 313 312 311 308 305 305 309 309 306 303 298 299
98 96 94 98 101 103 100 100 98 82 83 85 91 94 99 107 99 86 75 76 70 37 29 5 343 325 316 311 308 308 310 311 310 309 307 305 305 305 305 302 302 301 301
94 94 94 96 97 96 95 94 97 99 95 87 83 92 90 86 80 65 51 48 29 19 14 355 337 325 316 312 312 311 310 310 308 308 306 305 303 300 299 296 298 298 300
92 94 97 96 95 93 89 89 90 92 97 101 98 84 76 70 63 51 39 46 29 20 7 345 333 324 317 314 312 309 308 307 307 307 305 302 299 296 294 295 298 296 298
92 100 99 94 90 88 88 91 91 91 92 90 81 65 55 55 53 48 47 46 33 16 1 347 335 326 319 315 310 307 305 304 304 304 303 299 297 294 291 294 293 294 296
90 90 91 91 89 90 90 89 91 93 93 88 78 66 64 64 54 46 39 32 20 3 347 335 327 321 317 313 309 305 303 302 301 300 299 296 295 293 292 290 291 293 295
89 87 86 86 87 84 85 87 89 89 88 86 79 60 54 58 51 43 32 20 6 354 344 333 323 317 314 309 306 303 301 300 301 301 299 297 295 293 291 290 292 293 296
86 86 85 84 86 87 85 83 83 82 79 72 63 54 44 43 35 21 7 356 347 335 327 322 316 312 311 308 304 301 298 298 297 295 295 294 294 293 292 290 290 292 296
86 86 88 87 87 84 83 83 79 75 70 63 58 49 39 24 9 354 341 333 328 324 322 320 318 315 313 312 307 301 297 294 292 291 289 287 288 289 287 286 286 290 294
86 87 87 87 85 84 82 77 73 68 65 59 48 32 9 354 342 335 332 331 328 326 323 321 318 317 317 313 310 306 301 298 293 289 288 284 282 282 281 280 282 288 292
88 88 87 85 82 79 78 78 74 67 57 39 21 5 354 346 338 334 332 330 324 323 323 322 322 322 320 317 315 315 313 309 305 301 294 283 278 277 277 278 282 285 289